    Observers A. Maury, J.-B. de Vanssay, J.-F. Soulier. Measurer J.-F.
   Soulier. 0.4-m f/5.2 Ritchey-Chrétien + CCD.
(X07) iTelescope Deep Sky Chile, Rio Hurtado  (S30.526389 W70.853610)  Chile.
    Observer H. Sato. 0.51-m f/6.8 astrograph + CCD.
(X09) Deep Random Survey, Rio Hurtado  (S30.526310 W70.853300)  Chile.
(Y05) SONEAR Wykrota-CEAMIG, Serra da Piedade  (S19.824251 W43.690000)
   Brazil.  Observer C. Jacques. 0.45-m f/2.9 reflector + CMO.

Orbital elements:  SWAN25B
   Perihelion 2025 Sep 12.744771 +/- 0.147 TT = 17:52:28.1 (JD 2460931.244771)
Epoch 2025 Sep 14.0 TT = JDT 2460932.5   Earth MOID: 0.0477   Ju: 0.0457
M   0.002714352 +/- 0.0018          Ve: 0.0575   Me: 0.0465   Ma: 0.0787
n   0.002162435 +/- 0.00168         Peri.  308.110292 +/- 0.37   AutoNEOCP
a  59.22529336 +/- 25.3             Node   335.454300 +/- 0.22
e   0.99149297 +/- 0.00424          Incl.    4.473449 +/- 0.0023
P 455.78584                H  7.96  G  0.15   U  8.4
q 0.503830935 +/- 0.000393    Q 117.9467557 +/- 50.2      (J2000 ecliptic)
81 of 87 observations 2025 Aug. 13-Sept. 14; mean residual 17".63
Residuals in arcseconds: 
250813 C49 83.1+  .30-    250912 X09  .67-  .11+    250913 194  .14+  .58-    
250813 C49 86.5+  1.0+    250912 X09  .17-  .16-    250913 X09  .33-  .08-    
250814 C49 64.6+ 19.6+    250912 W96  .24-  .06+    250913 X07  .20-  .76-    
250814 C49 62.8+ 15.1+    250912 W96  .36+  .08-    250913 X09  .85-  .13+    
250815 C49 55.8+ 18.4+    250912 W94  .50+  .63-    250913 X07  .38-  .03+    
250815 C49 59.2+ 49.6+    250912 W94  .53+  .42-    250913 W96  .16+  .08-    
250816 C49 51.7+ 14.7+    250912 W96  1.4+  .82-    250913 X09  .28+  .17-    
250816 C49 48.0+ 49.4+    250912 W94  .47+  .47-    250913 W96  .52+  .10-    
250817 C49 35.8+ 47.0+    250912 X09  .09-  .39+    250913 W96  .34+  .30+    
250817 C49 47.3+ 66.5+    250912 X09  .95-  .56+    250913 X09  .17-  .09+    
250911 247( 4.6+ 10.6-)   250912 X09  .63-  .19+    250914 24b( 4.5+  .34+)   
250911 247( 7.2+  5.8+)   250912 X09  .09+  .03+    250914 24b  .31+  .21+    
250912 Q71  1.1-  1.0+    250912 X07  .38-  .30+    250914 24b( 1.9+  .63-)   
250912 Q62  .37-  .35+    250912 X07  .45+  .73-    250914 24b  .05-  1.1+    
250912 Q62  .04-  .47+    250913 Q62  .72-  .58+    250914 M44  1.2-  .38-    
250912 Q62  .22-  .46+    250913 Q62  .54-  .51+    250914 M44  .64-  .78+    
250912 Q62  .18-  .68+    250913 Q62  1.1-  .15+    250914 M44  .13+  .60+    
250912 Q62  .40-  .69+    250913 M58( 2.1+  1.1+)   250914 194  1.2+  .43-    
250912 Q62  .17-  .49+    250913 M58  .71+  .29-    250914 194  .69-  .22+    
250912 Q62  .05-  .18+    250913 194  .21+  .22-    250914 194  .83+  .93-    
250912 Q71  .83-  .60-    250913 M21  .16-  .62-    250914 Y05  .19+  .42-    
250912 Q71  .52+  1.2-    250913 M58  .91+  .18+    250914 Y05  .19+  .14-    
250912 24a  .98-  .10+    250913 194  .46+  .07+    250914 Y05  .16+  .26-    
250912 24a  1.3+  .11-    250913 194  .27+  .22-    250914 Y05  .18+  .19-    
250912 24a  1.2+  .55-    250913 M58  .66+  .34+    250914 X09  .06-  .10+    
250912 24a( 3.7+  2.3-)   250913 M21  .36+  .15+    250914 X09  .12-  .09+    
250912 Y05  1.2-  .72+    250913 194  .12-  .29+    250914 X09  .36-  .01-    
250912 Y05  .26-  .56+    250913 194  .65-  .35-    250914 X09  .15-  .09+    
250912 Y05  .87+  .35-    250913 M21  .41-  .15+    250914 X09  .58-  .01-    

Ephemerides (geocentric):
Date (UTC) HH   RA             Dec           delta  r     elong  mag " sig PA
---- --------  ------------   ------------  ------ ------ -----  --- --------
2025 09 15 18  13 23 01.869   -10 36 05.91  .84949 .50900  30.4  9.4 .819 129
2025 09 15 19  13 23 13.082   -10 37 00.47  .84843 .50914  30.4  9.4 .810 130
2025 09 15 20  13 23 24.298   -10 37 54.96  .84736 .50929  30.4  9.4 .800 131
2025 09 15 21  13 23 35.517   -10 38 49.40  .84630 .50944  30.4  9.4 .790 132
2025 09 15 22  13 23 46.740   -10 39 43.77  .84524 .50959  30.4  9.4 .779 133
2025 09 15 23  13 23 57.967   -10 40 38.08  .84417 .50974  30.4  9.4 .769 134
2025 09 16 00  13 24 09.197   -10 41 32.32  .84311 .50989  30.4  9.4 .757 136
2025 09 16 01  13 24 20.430   -10 42 26.50  .84205 .51005  30.4  9.4 .746 137
2025 09 16 02  13 24 31.667   -10 43 20.62  .84099 .51020  30.5  9.4 .735 138
2025 09 16 03  13 24 42.908   -10 44 14.67  .83993 .51036  30.5  9.4 .723 140
2025 09 16 04  13 24 54.153   -10 45 08.65  .83887 .51052  30.5  9.4 .711 142
2025 09 16 05  13 25 05.401   -10 46 02.58  .83780 .51069  30.5  9.4 .699 144
2025 09 16 06  13 25 16.653   -10 46 56.44  .83674 .51085  30.5  9.4 .687 146
2025 09 16 07  13 25 27.908   -10 47 50.23  .83568 .51102  30.5  9.4 .676 148
2025 09 16 08  13 25 39.168   -10 48 43.96  .83462 .51118  30.5  9.4 .665 150
2025 09 16 09  13 25 50.431   -10 49 37.63  .83356 .51135  30.5  9.4 .654 152
2025 09 16 10  13 26 01.698   -10 50 31.23  .83250 .51153  30.5  9.4 .643 155
2025 09 16 11  13 26 12.968   -10 51 24.77  .83144 .51170  30.5  9.4 .634 157
2025 09 16 12  13 26 24.243   -10 52 18.25  .83038 .51188  30.5  9.5 .625 160
2025 09 16 13  13 26 35.522   -10 53 11.66  .82932 .51205  30.5  9.5 .617 163
2025 09 16 14  13 26 46.804   -10 54 05.00  .82827 .51223  30.5  9.5 .611 166
2025 09 16 15  13 26 58.090   -10 54 58.28  .82721 .51242  30.5  9.5 .606 170
2025 09 16 16  13 27 09.381   -10 55 51.50  .82615 .51260  30.6  9.5 .603 173
2025 09 16 17  13 27 20.675   -10 56 44.65  .82509 .51278  30.6  9.5 .602 177
2025 09 16 18  13 27 31.973   -10 57 37.74  .82403 .51297  30.6  9.5 .603   0
2025 09 16 19  13 27 43.275   -10 58 30.76  .82298 .51316  30.6  9.5 .606   4
2025 09 16 20  13 27 54.582   -10 59 23.72  .82192 .51335  30.6  9.5 .612   8
2025 09 16 21  13 28 05.893   -11 00 16.61  .82086 .51354  30.6  9.5 .621  12
2025 09 16 22  13 28 17.207   -11 01 09.44  .81981 .51374  30.6  9.5 .632  16
2025 09 16 23  13 28 28.526   -11 02 02.20  .81875 .51394  30.6  9.5 .647  20
2025 09 17 00  13 28 39.849   -11 02 54.90  .81770 .51413  30.6  9.5 .664  23
2025 09 17 01  13 28 51.177   -11 03 47.54  .81664 .51433  30.6  9.5 .685  27
2025 09 17 02  13 29 02.508   -11 04 40.11  .81559 .51454  30.6  9.5 .708  31
2025 09 17 03  13 29 13.844   -11 05 32.61  .81453 .51474  30.6  9.5 .735  34
2025 09 17 04  13 29 25.184   -11 06 25.05  .81348 .51495  30.6  9.5 .764  37
2025 09 17 05  13 29 36.529   -11 07 17.43  .81242 .51515  30.7  9.5 .797  40
2025 09 17 06  13 29 47.878   -11 08 09.74  .81137 .51536  30.7  9.5 .832  43
2025 09 17 07  13 29 59.231   -11 09 01.98  .81032 .51557  30.7  9.5 .870  46
2025 09 17 08  13 30 10.589   -11 09 54.16  .80927 .51579  30.7  9.5 .911  48
2025 09 17 09  13 30 21.952   -11 10 46.28  .80821 .51600  30.7  9.5 .955  51
2025 09 17 10  13 30 33.319   -11 11 38.33  .80716 .51622  30.7  9.5 1.00  53
2025 09 17 11  13 30 44.690   -11 12 30.32  .80611 .51644  30.7  9.5 1.05  55
2025 09 17 12  13 30 56.066   -11 13 22.24  .80506 .51666  30.7  9.5 1.10  57
2025 09 17 13  13 31 07.447   -11 14 14.10  .80401 .51688  30.7  9.5 1.15  59
2025 09 17 14  13 31 18.833   -11 15 05.89  .80296 .51710  30.7  9.5 1.21  61
2025 09 17 15  13 31 30.223   -11 15 57.62  .80191 .51733  30.7  9.5 1.27  63
2025 09 17 16  13 31 41.618   -11 16 49.28  .80086 .51756  30.7  9.5 1.33  64
2025 09 17 17  13 31 53.018   -11 17 40.88  .79981 .51779  30.7  9.5 1.39  66